Time,TemperatureF,DewpointF,PressureIn,WindDirection,WindDirectionDegrees,WindSpeedMPH,WindSpeedGustMPH,Humidity,HourlyPrecipIn,Conditions,Clouds,dailyrainin,SoftwareType,DateUTC
2013-07-01 00:04:00,66.9,49.7,29.72,West,270,0.0,0.0,54,0.00,,,0.00,WUHU21623XXSP,2013-07-01 07:04:00,
2013-07-01 00:10:00,66.9,50.2,29.72,SSE,157,0.7,0.7,55,0.00,,,0.00,WUHU21623XXSP,2013-07-01 07:10:00,
2013-07-01 00:15:00,66.9,50.7,29.72,South,180,1.1,1.1,56,0.00,,,0.00,WUHU21623XXSP,2013-07-01 07:15:00,
2013-07-01 00:20:00,66.7,50.5,29.72,South,180,0.0,1.1,56,0.00,,,0.00,WUHU21623XXSP,2013-07-01 07:20:00,
2013-07-01 00:25:00,66.7,50.5,29.73,SSE,157,0.0,0.0,56,0.00,,,0.00,WUHU21623XXSP,2013-07-01 07:25:00,
2013-07-01 00:30:00,66.6,50.8,29.72,South,180,1.3,1.3,57,0.00,,,0.00,WUHU21623XXSP,2013-07-01 07:30:00,
2013-07-01 00:35:00,66.4,50.7,29.72,South,180,0.0,1.3,57,0.00,,,0.00,WUHU21623XXSP,2013-07-01 07:35:00,
2013-07-01 00:40:00,66.0,50.3,29.73,South,180,0.0,0.0,57,0.00,,,0.00,WUHU21623XXSP,2013-07-01 07:40:00,
2013-07-01 00:45:00,66.0,50.3,29.73,South,180,0.0,0.0,57,0.00,,,0.00,WUHU21623XXSP,2013-07-01 07:45:00,
2013-07-01 00:50:00,65.8,50.2,29.73,SSW,202,0.0,0.0,57,0.00,,,0.00,WUHU21623XXSP,2013-07-01 07:50:00,
2013-07-01 00:55:00,65.8,50.6,29.73,SSW,202,0.0,0.0,58,0.00,,,0.00,WUHU21623XXSP,2013-07-01 07:55:00,
2013-07-01 01:00:00,65.7,51.0,29.73,SSW,202,0.0,0.0,59,0.00,,,0.00,WUHU21623XXSP,2013-07-01 08:00:00,
2013-07-01 01:05:00,65.7,51.0,29.73,SSW,202,0.0,0.0,59,0.00,,,0.00,WUHU21623XXSP,2013-07-01 08:05:00,
2013-07-01 01:13:00,65.1,51.3,29.73,ENE,67,0.0,0.0,61,0.00,,,0.00,WUHU21623XXSP,2013-07-01 08:13:00,
2013-07-01 01:18:00,64.9,51.1,29.73,ENE,67,0.0,0.0,61,0.00,,,0.00,WUHU21623XXSP,2013-07-01 08:18:00,
2013-07-01 01:23:00,64.8,51.0,29.73,ENE,67,0.0,0.0,61,0.00,,,0.00,WUHU21623XXSP,2013-07-01 08:23:00,
2013-07-01 01:28:00,64.6,51.2,29.73,ENE,67,0.0,0.0,62,0.00,,,0.00,WUHU21623XXSP,2013-07-01 08:28:00,
2013-07-01 01:33:00,64.2,51.3,29.73,ENE,67,0.0,0.0,63,0.00,,,0.00,WUHU21623XXSP,2013-07-01 08:33:00,
2013-07-01 01:38:00,64.2,50.9,29.73,ENE,67,0.0,0.0,63,0.00,,,0.00,WUHU21623XXSP,2013-07-01 08:38:00,
2013-07-01 01:43:00,64.2,51.3,29.74,NNE,22,0.0,0.0,63,0.00,,,0.00,WUHU21623XXSP,2013-07-01 08:43:00,
2013-07-01 01:48:00,64.0,51.6,29.74,NE,45,0.0,0.0,64,0.00,,,0.00,WUHU21623XXSP,2013-07-01 08:48:00,
2013-07-01 01:53:00,64.0,52.0,29.74,ENE,67,0.0,0.0,65,0.00,,,0.00,WUHU21623XXSP,2013-07-01 08:53:00,
2013-07-01 01:58:00,63.9,51.8,29.74,ENE,67,0.0,0.0,65,0.00,,,0.00,WUHU21623XXSP,2013-07-01 08:58:00,
2013-07-01 02:03:00,63.9,51.8,29.74,ENE,67,0.0,0.0,65,0.00,,,0.00,WUHU21623XXSP,2013-07-01 09:03:00,
2013-07-01 02:13:00,63.7,51.2,29.74,South,180,0.0,0.0,64,0.00,,,0.00,WUHU21623XXSP,2013-07-01 09:13:00,
2013-07-01 02:18:00,63.5,51.5,29.74,West,270,0.0,0.0,65,0.00,,,0.00,WUHU21623XXSP,2013-07-01 09:18:00,
2013-07-01 02:23:00,63.3,50.9,29.74,WNW,292,0.0,0.0,64,0.00,,,0.00,WUHU21623XXSP,2013-07-01 09:23:00,
2013-07-01 02:28:00,63.3,51.3,29.74,North,0,0.0,0.0,65,0.00,,,0.00,WUHU21623XXSP,2013-07-01 09:28:00,
2013-07-01 02:33:00,63.1,52.0,29.74,ENE,67,0.0,0.0,67,0.00,,,0.00,WUHU21623XXSP,2013-07-01 09:33:00,
2013-07-01 02:38:00,63.1,52.0,29.74,ENE,67,0.0,0.0,67,0.00,,,0.00,WUHU21623XXSP,2013-07-01 09:38:00,
2013-07-01 02:43:00,63.0,52.2,29.73,NNE,22,0.0,0.0,68,0.00,,,0.00,WUHU21623XXSP,2013-07-01 09:43:00,
2013-07-01 02:48:00,63.0,52.2,29.74,ENE,67,0.0,0.0,68,0.00,,,0.00,WUHU21623XXSP,2013-07-01 09:48:00,
2013-07-01 02:53:00,62.8,52.4,29.74,ENE,67,0.0,0.0,69,0.00,,,0.00,WUHU21623XXSP,2013-07-01 09:53:00,
2013-07-01 02:58:00,62.6,52.7,29.74,ENE,67,0.0,0.0,70,0.00,,,0.00,WUHU21623XXSP,2013-07-01 09:58:00,
2013-07-01 03:13:00,62.4,52.1,29.75,NW,315,0.0,0.0,69,0.00,,,0.00,WUHU21623XXSP,2013-07-01 10:13:00,
2013-07-01 03:18:00,62.2,52.4,29.75,North,0,0.0,0.0,70,0.00,,,0.00,WUHU21623XXSP,2013-07-01 10:18:00,
2013-07-01 03:23:00,62.2,52.7,29.75,NE,45,0.0,0.0,71,0.00,,,0.00,WUHU21623XXSP,2013-07-01 10:23:00,
2013-07-01 03:28:00,62.2,53.1,29.75,ENE,67,0.0,0.0,72,0.00,,,0.00,WUHU21623XXSP,2013-07-01 10:28:00,
2013-07-01 03:33:00,62.1,52.9,29.75,NE,45,0.0,0.0,72,0.00,,,0.00,WUHU21623XXSP,2013-07-01 10:33:00,
2013-07-01 03:38:00,61.9,52.9,29.75,NE,45,0.0,0.0,72,0.00,,,0.00,WUHU21623XXSP,2013-07-01 10:38:00,
2013-07-01 03:43:00,61.9,53.1,29.75,NE,45,0.0,0.0,73,0.00,,,0.00,WUHU21623XXSP,2013-07-01 10:43:00,
2013-07-01 03:48:00,61.7,53.0,29.75,ENE,67,0.0,0.0,73,0.00,,,0.00,WUHU21623XXSP,2013-07-01 10:48:00,
2013-07-01 03:53:00,61.7,53.0,29.75,NE,45,0.0,0.0,73,0.00,,,0.00,WUHU21623XXSP,2013-07-01 10:53:00,
2013-07-01 03:58:00,61.5,53.2,29.75,NE,45,0.0,0.0,74,0.00,,,0.00,WUHU21623XXSP,2013-07-01 10:58:00,
2013-07-01 04:03:00,61.5,53.5,29.75,NE,45,0.0,0.0,75,0.00,,,0.00,WUHU21623XXSP,2013-07-01 11:03:00,
2013-07-01 04:08:00,61.5,53.5,29.75,ENE,67,0.0,0.0,75,0.00,,,0.00,WUHU21623XXSP,2013-07-01 11:08:00,
2013-07-01 04:13:00,61.3,53.7,29.75,NE,45,0.0,0.0,76,0.00,,,0.00,WUHU21623XXSP,2013-07-01 11:13:00,
2013-07-01 04:18:00,61.3,53.7,29.75,NE,45,0.0,0.0,76,0.00,,,0.00,WUHU21623XXSP,2013-07-01 11:18:00,
2013-07-01 04:23:00,61.3,53.7,29.75,NE,45,0.0,0.0,76,0.00,,,0.00,WUHU21623XXSP,2013-07-01 11:23:00,
2013-07-01 04:28:00,61.2,53.6,29.75,NE,45,0.0,0.0,77,0.00,,,0.00,WUHU21623XXSP,2013-07-01 11:28:00,
2013-07-01 04:33:00,61.2,53.9,29.76,ENE,67,0.0,0.0,77,0.00,,,0.00,WUHU21623XXSP,2013-07-01 11:33:00,
2013-07-01 04:38:00,61.2,53.9,29.75,ENE,67,0.0,0.0,77,0.00,,,0.00,WUHU21623XXSP,2013-07-01 11:38:00,
2013-07-01 04:43:00,61.0,54.1,29.75,ENE,67,0.0,0.0,78,0.00,,,0.00,WUHU21623XXSP,2013-07-01 11:43:00,
2013-07-01 04:48:00,61.0,54.1,29.76,ENE,67,0.0,0.0,78,0.00,,,0.00,WUHU21623XXSP,2013-07-01 11:48:00,
2013-07-01 04:53:00,61.0,54.1,29.76,ENE,67,0.0,0.0,78,0.00,,,0.00,WUHU21623XXSP,2013-07-01 11:53:00,
2013-07-01 04:58:00,61.0,53.8,29.75,NE,45,0.0,0.0,77,0.00,,,0.00,WUHU21623XXSP,2013-07-01 11:58:00,
2013-07-01 05:03:00,61.0,54.5,29.75,ENE,67,0.0,0.0,79,0.00,,,0.00,WUHU21623XXSP,2013-07-01 12:03:00,
2013-07-01 05:08:00,61.0,54.5,29.75,NE,45,0.0,0.0,79,0.00,,,0.00,WUHU21623XXSP,2013-07-01 12:08:00,
2013-07-01 05:13:00,61.0,54.8,29.75,ENE,67,0.0,0.0,80,0.00,,,0.00,WUHU21623XXSP,2013-07-01 12:13:00,
2013-07-01 05:18:00,61.0,54.8,29.75,ENE,67,0.0,0.0,80,0.00,,,0.00,WUHU21623XXSP,2013-07-01 12:18:00,
2013-07-01 05:23:00,61.0,55.2,29.76,ENE,67,0.0,0.0,81,0.00,,,0.00,WUHU21623XXSP,2013-07-01 12:23:00,
2013-07-01 05:28:00,60.8,54.8,29.75,NE,45,0.0,0.0,81,0.00,,,0.00,WUHU21623XXSP,2013-07-01 12:28:00,
2013-07-01 05:33:00,60.8,54.3,29.76,NE,45,0.0,0.0,79,0.00,,,0.00,WUHU21623XXSP,2013-07-01 12:33:00,
2013-07-01 05:43:00,60.6,54.5,29.76,NE,45,0.0,0.0,80,0.00,,,0.00,WUHU21623XXSP,2013-07-01 12:43:00,
2013-07-01 05:48:00,60.6,54.5,29.76,NE,45,0.0,0.0,80,0.00,,,0.00,WUHU21623XXSP,2013-07-01 12:48:00,
2013-07-01 05:53:00,60.6,54.8,29.76,East,90,0.0,0.0,81,0.00,,,0.00,WUHU21623XXSP,2013-07-01 12:53:00,
2013-07-01 05:58:00,60.6,54.5,29.76,East,90,0.0,0.0,80,0.00,,,0.00,WUHU21623XXSP,2013-07-01 12:58:00,
2013-07-01 06:03:00,60.6,54.5,29.76,East,90,0.0,0.0,80,0.00,,,0.00,WUHU21623XXSP,2013-07-01 13:03:00,
2013-07-01 06:13:00,60.6,54.8,29.75,NE,45,0.0,0.0,81,0.00,,,0.00,WUHU21623XXSP,2013-07-01 13:13:00,
2013-07-01 06:18:00,60.6,54.8,29.76,NE,45,0.0,0.0,81,0.00,,,0.00,WUHU21623XXSP,2013-07-01 13:18:00,
2013-07-01 06:23:00,60.6,54.8,29.75,NE,45,0.0,0.0,81,0.00,,,0.00,WUHU21623XXSP,2013-07-01 13:23:00,
2013-07-01 06:28:00,60.6,54.8,29.75,ESE,112,0.0,0.0,81,0.00,,,0.00,WUHU21623XXSP,2013-07-01 13:28:00,
2013-07-01 06:33:00,60.6,55.1,29.76,ENE,67,0.0,0.0,82,0.00,,,0.00,WUHU21623XXSP,2013-07-01 13:33:00,
2013-07-01 06:38:00,60.6,55.1,29.76,ENE,67,0.0,0.0,82,0.00,,,0.00,WUHU21623XXSP,2013-07-01 13:38:00,
2013-07-01 06:43:00,60.6,54.8,29.76,SSE,157,0.0,0.0,81,0.00,,,0.00,WUHU21623XXSP,2013-07-01 13:43:00,
2013-07-01 06:48:00,60.6,54.8,29.75,WSW,247,0.0,0.0,81,0.00,,,0.00,WUHU21623XXSP,2013-07-01 13:48:00,
2013-07-01 06:53:00,60.6,55.1,29.76,SSE,157,0.0,0.0,82,0.00,,,0.00,WUHU21623XXSP,2013-07-01 13:53:00,
2013-07-01 06:58:00,60.6,54.8,29.76,SSE,157,0.0,0.0,81,0.00,,,0.00,WUHU21623XXSP,2013-07-01 13:58:00,
2013-07-01 07:03:00,60.6,54.8,29.76,SSE,157,0.0,0.0,81,0.00,,,0.00,WUHU21623XXSP,2013-07-01 14:03:00,
2013-07-01 07:08:00,60.6,54.8,29.76,SSW,202,0.0,0.0,81,0.00,,,0.00,WUHU21623XXSP,2013-07-01 14:08:00,
2013-07-01 07:13:00,61.0,54.8,29.76,South,180,0.0,0.0,80,0.00,,,0.00,WUHU21623XXSP,2013-07-01 14:13:00,
2013-07-01 07:18:00,61.0,54.7,29.76,South,180,0.0,0.0,80,0.00,,,0.00,WUHU21623XXSP,2013-07-01 14:18:00,
2013-07-01 07:23:00,61.0,54.8,29.76,South,180,0.0,0.0,80,0.00,,,0.00,WUHU21623XXSP,2013-07-01 14:23:00,
2013-07-01 07:28:00,61.0,54.8,29.76,SSE,157,0.0,0.0,80,0.00,,,0.00,WUHU21623XXSP,2013-07-01 14:28:00,
2013-07-01 07:33:00,61.2,55.0,29.76,SSW,202,0.0,0.9,80,0.00,,,0.00,WUHU21623XXSP,2013-07-01 14:33:00,
2013-07-01 07:38:00,61.2,55.0,29.76,SSE,157,0.7,0.9,80,0.00,,,0.00,WUHU21623XXSP,2013-07-01 14:38:00,
2013-07-01 07:43:00,61.3,54.8,29.77,South,180,0.0,0.7,79,0.00,,,0.00,WUHU21623XXSP,2013-07-01 14:43:00,
2013-07-01 07:48:00,61.3,54.8,29.76,SSE,157,0.0,0.0,79,0.00,,,0.00,WUHU21623XXSP,2013-07-01 14:48:00,
2013-07-01 07:53:00,61.3,55.2,29.76,SSE,157,0.0,0.0,80,0.00,,,0.00,WUHU21623XXSP,2013-07-01 14:53:00,
2013-07-01 07:58:00,61.5,55.3,29.76,South,180,0.0,0.0,80,0.00,,,0.00,WUHU21623XXSP,2013-07-01 14:58:00,
2013-07-01 08:03:00,61.5,55.3,29.76,East,90,0.0,0.0,80,0.00,,,0.00,WUHU21623XXSP,2013-07-01 15:03:00,
2013-07-01 08:08:00,61.7,55.5,29.76,NNE,22,0.0,0.0,80,0.00,,,0.00,WUHU21623XXSP,2013-07-01 15:08:00,
2013-07-01 08:13:00,61.9,55.7,29.77,WNW,292,0.0,0.0,80,0.00,,,0.00,WUHU21623XXSP,2013-07-01 15:13:00,
2013-07-01 08:18:00,62.1,55.8,29.76,NW,315,0.0,0.0,80,0.00,,,0.00,WUHU21623XXSP,2013-07-01 15:18:00,
2013-07-01 08:23:00,62.2,56.0,29.77,North,0,0.0,0.0,80,0.00,,,0.00,WUHU21623XXSP,2013-07-01 15:23:00,
2013-07-01 08:28:00,62.4,55.8,29.77,NNW,337,0.0,0.9,79,0.00,,,0.00,WUHU21623XXSP,2013-07-01 15:28:00,
2013-07-01 08:33:00,62.6,55.8,29.76,NNW,337,0.0,0.9,79,0.00,,,0.00,WUHU21623XXSP,2013-07-01 15:33:00,
2013-07-01 08:38:00,62.8,56.1,29.76,NNW,337,0.0,0.0,79,0.00,,,0.00,WUHU21623XXSP,2013-07-01 15:38:00,
2013-07-01 08:43:00,63.0,55.9,29.76,North,0,0.0,0.0,78,0.00,,,0.00,WUHU21623XXSP,2013-07-01 15:43:00,
2013-07-01 08:48:00,63.1,55.9,29.76,North,0,0.0,0.0,78,0.00,,,0.00,WUHU21623XXSP,2013-07-01 15:48:00,
2013-07-01 08:53:00,63.3,56.3,29.76,ENE,67,0.0,0.0,78,0.00,,,0.00,WUHU21623XXSP,2013-07-01 15:53:00,
2013-07-01 08:58:00,63.5,56.5,29.76,North,0,0.0,0.0,78,0.00,,,0.00,WUHU21623XXSP,2013-07-01 15:58:00,
2013-07-01 09:03:00,63.7,56.7,29.76,SSE,157,0.9,1.1,78,0.00,,,0.00,WUHU21623XXSP,2013-07-01 16:03:00,
2013-07-01 09:08:00,64.0,57.0,29.77,NE,45,0.0,1.1,78,0.00,,,0.00,WUHU21623XXSP,2013-07-01 16:08:00,
2013-07-01 09:13:00,64.2,56.8,29.76,South,180,0.0,0.9,77,0.00,,,0.00,WUHU21623XXSP,2013-07-01 16:13:00,
2013-07-01 09:18:00,64.6,57.2,29.76,West,270,0.0,0.0,77,0.00,,,0.00,WUHU21623XXSP,2013-07-01 16:18:00,
2013-07-01 09:23:00,64.9,57.2,29.76,WNW,292,0.0,0.0,76,0.00,,,0.00,WUHU21623XXSP,2013-07-01 16:23:00,
2013-07-01 09:28:00,65.1,57.3,29.76,WSW,247,1.3,1.3,76,0.00,,,0.00,WUHU21623XXSP,2013-07-01 16:28:00,
2013-07-01 09:33:00,65.3,57.1,29.76,West,270,0.0,1.3,75,0.00,,,0.00,WUHU21623XXSP,2013-07-01 16:33:00,
2013-07-01 09:38:00,65.7,57.5,29.76,NW,315,0.0,1.3,75,0.00,,,0.00,WUHU21623XXSP,2013-07-01 16:38:00,
2013-07-01 09:43:00,66.0,57.8,29.76,SSE,157,0.0,0.9,75,0.00,,,0.00,WUHU21623XXSP,2013-07-01 16:43:00,
2013-07-01 09:48:00,66.4,58.2,29.76,SSE,157,0.0,0.9,75,0.00,,,0.00,WUHU21623XXSP,2013-07-01 16:48:00,
2013-07-01 09:53:00,66.9,58.4,29.76,West,270,0.0,0.0,74,0.00,,,0.00,WUHU21623XXSP,2013-07-01 16:53:00,
2013-07-01 09:58:00,67.3,58.3,29.76,NW,315,0.0,2.0,73,0.00,,,0.00,WUHU21623XXSP,2013-07-01 16:58:00,
2013-07-01 10:03:00,67.8,58.9,29.76,North,0,0.0,2.0,73,0.00,,,0.00,WUHU21623XXSP,2013-07-01 17:03:00,
2013-07-01 10:08:00,68.4,59.0,29.76,WNW,292,0.0,1.3,72,0.00,,,0.00,WUHU21623XXSP,2013-07-01 17:08:00,
2013-07-01 10:13:00,68.7,58.9,29.76,WSW,247,1.1,1.3,71,0.00,,,0.00,WUHU21623XXSP,2013-07-01 17:13:00,
2013-07-01 10:18:00,69.4,59.2,29.76,ESE,112,0.0,1.1,70,0.00,,,0.00,WUHU21623XXSP,2013-07-01 17:18:00,
2013-07-01 10:23:00,70.0,59.4,29.76,West,270,1.8,1.8,69,0.00,,,0.00,WUHU21623XXSP,2013-07-01 17:23:00,
2013-07-01 10:28:00,70.3,59.6,29.76,West,270,0.0,1.8,69,0.00,,,0.00,WUHU21623XXSP,2013-07-01 17:28:00,
2013-07-01 10:33:00,70.9,59.3,29.75,SSE,157,0.9,1.1,67,0.00,,,0.00,WUHU21623XXSP,2013-07-01 17:33:00,
2013-07-01 10:38:00,71.4,59.9,29.76,WNW,292,0.0,1.1,67,0.00,,,0.00,WUHU21623XXSP,2013-07-01 17:38:00,
2013-07-01 10:43:00,72.0,60.0,29.76,SSW,202,1.6,1.8,66,0.00,,,0.00,WUHU21623XXSP,2013-07-01 17:43:00,
2013-07-01 10:48:00,72.3,59.9,29.76,WSW,247,0.0,2.0,65,0.00,,,0.00,WUHU21623XXSP,2013-07-01 17:48:00,
2013-07-01 10:53:00,73.0,60.1,29.76,SW,225,1.8,2.0,64,0.00,,,0.00,WUHU21623XXSP,2013-07-01 17:53:00,
2013-07-01 10:58:00,73.6,60.6,29.77,WSW,247,1.1,1.8,64,0.00,,,0.00,WUHU21623XXSP,2013-07-01 17:58:00,
2013-07-01 11:03:00,73.9,60.9,29.76,SSE,157,0.0,1.3,64,0.00,,,0.00,WUHU21623XXSP,2013-07-01 18:03:00,
2013-07-01 11:09:00,75.0,61.1,29.76,WNW,292,0.0,0.0,62,0.00,,,0.00,WUHU21623XXSP,2013-07-01 18:09:00,
2013-07-01 11:14:00,75.4,61.5,29.77,West,270,0.0,1.3,62,0.00,,,0.00,WUHU21623XXSP,2013-07-01 18:14:00,
2013-07-01 11:19:00,75.9,61.5,29.76,SSE,157,1.3,1.3,61,0.00,,,0.00,WUHU21623XXSP,2013-07-01 18:19:00,
2013-07-01 11:24:00,76.8,61.9,29.77,SE,135,1.3,1.3,60,0.00,,,0.00,WUHU21623XXSP,2013-07-01 18:24:00,
2013-07-01 11:29:00,77.4,62.4,29.76,West,270,0.0,1.3,60,0.00,,,0.00,WUHU21623XXSP,2013-07-01 18:29:00,
2013-07-01 11:34:00,77.7,62.3,29.77,WNW,292,3.1,3.1,59,0.00,,,0.00,WUHU21623XXSP,2013-07-01 18:34:00,
2013-07-01 11:39:00,78.4,62.5,29.76,SE,135,1.6,3.1,58,0.00,,,0.00,WUHU21623XXSP,2013-07-01 18:39:00,
2013-07-01 11:44:00,79.2,62.6,29.76,NW,315,0.7,1.6,57,0.00,,,0.00,WUHU21623XXSP,2013-07-01 18:44:00,
2013-07-01 11:49:00,79.9,62.7,29.76,WNW,292,2.9,2.9,56,0.00,,,0.00,WUHU21623XXSP,2013-07-01 18:49:00,
2013-07-01 11:54:00,80.8,63.6,29.76,SE,135,0.0,2.9,56,0.00,,,0.00,WUHU21623XXSP,2013-07-01 18:54:00,
2013-07-01 11:59:00,81.1,63.4,29.76,ESE,112,0.0,1.3,55,0.00,,,0.00,WUHU21623XXSP,2013-07-01 18:59:00,
2013-07-01 12:04:00,81.7,63.3,29.77,West,270,0.0,0.9,54,0.00,,,0.00,WUHU21623XXSP,2013-07-01 19:04:00,
2013-07-01 12:09:00,82.2,63.8,29.76,SW,225,3.1,3.1,54,0.00,,,0.00,WUHU21623XXSP,2013-07-01 19:09:00,
2013-07-01 12:14:00,82.8,63.8,29.76,SSE,157,0.0,3.1,53,0.00,,,0.00,WUHU21623XXSP,2013-07-01 19:14:00,
2013-07-01 12:19:00,83.3,64.3,29.76,West,270,0.0,1.1,53,0.00,,,0.00,WUHU21623XXSP,2013-07-01 19:19:00,
2013-07-01 12:24:00,84.0,64.5,29.76,WNW,292,1.1,3.1,52,0.00,,,0.00,WUHU21623XXSP,2013-07-01 19:24:00,
2013-07-01 12:29:00,84.6,64.5,29.76,South,180,0.0,3.1,51,0.00,,,0.00,WUHU21623XXSP,2013-07-01 19:29:00,
2013-07-01 12:34:00,84.9,64.3,29.76,WNW,292,5.1,5.1,50,0.00,,,0.00,WUHU21623XXSP,2013-07-01 19:34:00,
2013-07-01 12:39:00,85.8,65.1,29.76,West,270,0.0,5.1,50,0.00,,,0.00,WUHU21623XXSP,2013-07-01 19:39:00,
2013-07-01 12:44:00,86.4,65.0,29.76,WNW,292,0.0,1.3,49,0.00,,,0.00,WUHU21623XXSP,2013-07-01 19:44:00,
2013-07-01 12:49:00,86.7,65.3,29.76,South,180,0.0,1.6,49,0.00,,,0.00,WUHU21623XXSP,2013-07-01 19:49:00,
2013-07-01 12:54:00,87.4,65.3,29.76,NNW,337,3.6,3.6,48,0.00,,,0.00,WUHU21623XXSP,2013-07-01 19:54:00,
2013-07-01 12:59:00,88.0,65.2,29.76,NW,315,2.0,3.6,47,0.00,,,0.00,WUHU21623XXSP,2013-07-01 19:59:00,
2013-07-01 13:04:00,88.3,64.8,29.76,SSW,202,3.8,3.8,46,0.00,,,0.00,WUHU21623XXSP,2013-07-01 20:04:00,
2013-07-01 13:09:00,88.9,65.3,29.76,NW,315,0.0,3.8,46,0.00,,,0.00,WUHU21623XXSP,2013-07-01 20:09:00,
2013-07-01 13:14:00,89.2,65.0,29.76,SW,225,1.3,2.5,45,0.00,,,0.00,WUHU21623XXSP,2013-07-01 20:14:00,
2013-07-01 13:19:00,89.6,64.0,29.76,South,180,0.7,2.2,43,0.00,,,0.00,WUHU21623XXSP,2013-07-01 20:19:00,
2013-07-01 13:24:00,90.3,64.0,29.76,ESE,112,0.9,2.2,42,0.00,,,0.00,WUHU21623XXSP,2013-07-01 20:24:00,
2013-07-01 13:29:00,90.9,64.5,29.75,ESE,112,0.7,1.8,42,0.00,,,0.00,WUHU21623XXSP,2013-07-01 20:29:00,
2013-07-01 13:34:00,91.2,64.8,29.75,South,180,0.9,1.6,42,0.00,,,0.00,WUHU21623XXSP,2013-07-01 20:34:00,
2013-07-01 13:39:00,91.9,65.5,29.76,SSW,202,0.0,4.7,42,0.00,,,0.00,WUHU21623XXSP,2013-07-01 20:39:00,
2013-07-01 13:44:00,92.3,65.8,29.75,NNE,22,0.0,4.7,42,0.00,,,0.00,WUHU21623XXSP,2013-07-01 20:44:00,
2013-07-01 13:49:00,92.5,65.3,29.75,WNW,292,0.7,2.2,41,0.00,,,0.00,WUHU21623XXSP,2013-07-01 20:49:00,
2013-07-01 13:54:00,92.8,65.6,29.75,South,180,2.2,3.1,41,0.00,,,0.00,WUHU21623XXSP,2013-07-01 20:54:00,
2013-07-01 13:59:00,93.0,65.8,29.75,SW,225,1.1,3.1,41,0.00,,,0.00,WUHU21623XXSP,2013-07-01 20:59:00,
2013-07-01 14:04:00,93.4,64.7,29.75,South,180,0.0,2.0,39,0.00,,,0.00,WUHU21623XXSP,2013-07-01 21:04:00,
2013-07-01 14:09:00,93.6,64.7,29.75,SSE,157,2.0,2.0,38,0.00,,,0.00,WUHU21623XXSP,2013-07-01 21:09:00,
2013-07-01 14:14:00,94.1,64.5,29.75,SW,225,2.5,3.4,38,0.00,,,0.00,WUHU21623XXSP,2013-07-01 21:14:00,
2013-07-01 14:19:00,94.3,63.8,29.74,South,180,0.7,3.4,37,0.00,,,0.00,WUHU21623XXSP,2013-07-01 21:19:00,
2013-07-01 14:24:00,94.6,64.2,29.74,ENE,67,0.0,2.9,37,0.00,,,0.00,WUHU21623XXSP,2013-07-01 21:24:00,
2013-07-01 14:29:00,94.8,62.7,29.74,NE,45,1.6,4.5,35,0.00,,,0.00,WUHU21623XXSP,2013-07-01 21:29:00,
2013-07-01 14:34:00,95.2,63.0,29.74,South,180,0.7,4.5,35,0.00,,,0.00,WUHU21623XXSP,2013-07-01 21:34:00,
2013-07-01 14:39:00,95.4,63.2,29.74,South,180,4.0,4.0,35,0.00,,,0.00,WUHU21623XXSP,2013-07-01 21:39:00,
2013-07-01 14:44:00,95.5,62.5,29.74,South,180,0.0,6.7,34,0.00,,,0.00,WUHU21623XXSP,2013-07-01 21:44:00,
2013-07-01 14:49:00,95.5,63.3,29.74,South,180,1.1,6.7,34,0.00,,,0.00,WUHU21623XXSP,2013-07-01 21:49:00,
2013-07-01 14:54:00,95.5,62.5,29.74,SSW,202,2.9,2.9,34,0.00,,,0.00,WUHU21623XXSP,2013-07-01 21:54:00,
2013-07-01 14:59:00,95.7,62.7,29.74,SE,135,1.6,2.9,34,0.00,,,0.00,WUHU21623XXSP,2013-07-01 21:59:00,
2013-07-01 15:04:00,95.9,62.8,29.74,SW,225,2.2,2.2,34,0.00,,,0.00,WUHU21623XXSP,2013-07-01 22:04:00,
2013-07-01 15:09:00,95.9,62.8,29.74,SSE,157,0.0,3.1,34,0.00,,,0.00,WUHU21623XXSP,2013-07-01 22:09:00,
2013-07-01 15:14:00,95.9,62.8,29.74,South,180,2.7,3.1,34,0.00,,,0.00,WUHU21623XXSP,2013-07-01 22:14:00,
2013-07-01 15:19:00,95.9,62.8,29.74,South,180,3.8,3.8,34,0.00,,,0.00,WUHU21623XXSP,2013-07-01 22:19:00,
2013-07-01 15:24:00,95.9,62.8,29.74,SSE,157,3.4,3.8,34,0.00,,,0.00,WUHU21623XXSP,2013-07-01 22:24:00,
2013-07-01 15:29:00,95.7,62.7,29.74,WSW,247,2.2,3.4,34,0.00,,,0.00,WUHU21623XXSP,2013-07-01 22:29:00,
2013-07-01 15:34:00,95.7,63.5,29.73,SW,225,1.6,2.9,35,0.00,,,0.00,WUHU21623XXSP,2013-07-01 22:34:00,
2013-07-01 15:39:00,95.4,62.3,29.73,SE,135,4.0,4.9,34,0.00,,,0.00,WUHU21623XXSP,2013-07-01 22:39:00,
2013-07-01 15:44:00,95.2,63.0,29.73,South,180,2.0,4.9,35,0.00,,,0.00,WUHU21623XXSP,2013-07-01 22:44:00,
2013-07-01 15:49:00,94.8,62.7,29.73,West,270,1.6,2.0,35,0.00,,,0.00,WUHU21623XXSP,2013-07-01 22:49:00,
2013-07-01 15:54:00,94.6,62.5,29.73,SSE,157,2.2,2.2,35,0.00,,,0.00,WUHU21623XXSP,2013-07-01 22:54:00,
2013-07-01 15:59:00,94.5,61.6,29.73,SW,225,3.4,3.4,34,0.00,,,0.00,WUHU21623XXSP,2013-07-01 22:59:00,
2013-07-01 16:04:00,93.9,61.1,29.73,SW,225,2.7,4.9,34,0.00,,,0.00,WUHU21623XXSP,2013-07-01 23:04:00,
2013-07-01 16:09:00,93.4,61.4,29.73,West,270,0.0,4.9,35,0.00,,,0.00,WUHU21623XXSP,2013-07-01 23:09:00,
2013-07-01 16:14:00,93.4,61.4,29.74,South,180,4.5,4.5,35,0.00,,,0.00,WUHU21623XXSP,2013-07-01 23:14:00,
2013-07-01 16:19:00,93.4,61.4,29.73,SW,225,0.0,4.5,35,0.00,,,0.00,WUHU21623XXSP,2013-07-01 23:19:00,
2013-07-01 16:24:00,93.0,61.1,29.73,WSW,247,2.5,3.4,35,0.00,,,0.00,WUHU21623XXSP,2013-07-01 23:24:00,
2013-07-01 16:29:00,93.0,61.9,29.73,South,180,2.7,3.4,36,0.00,,,0.00,WUHU21623XXSP,2013-07-01 23:29:00,
2013-07-01 16:34:00,93.4,61.4,29.72,SSE,157,0.0,2.7,35,0.00,,,0.00,WUHU21623XXSP,2013-07-01 23:34:00,
2013-07-01 16:39:00,93.6,61.6,29.73,SE,135,0.0,3.8,35,0.00,,,0.00,WUHU21623XXSP,2013-07-01 23:39:00,
2013-07-01 16:44:00,93.7,61.7,29.72,East,90,0.0,3.8,35,0.00,,,0.00,WUHU21623XXSP,2013-07-01 23:44:00,
2013-07-01 16:49:00,93.7,61.7,29.72,SSE,157,0.0,2.2,35,0.00,,,0.00,WUHU21623XXSP,2013-07-01 23:49:00,
2013-07-01 16:54:00,94.3,62.2,29.72,WSW,247,3.8,5.1,35,0.00,,,0.00,WUHU21623XXSP,2013-07-01 23:54:00,
2013-07-01 16:59:00,94.6,62.5,29.73,SSE,157,2.9,5.1,35,0.00,,,0.00,WUHU21623XXSP,2013-07-01 23:59:00,
2013-07-01 17:04:00,95.2,62.2,29.72,South,180,1.6,2.9,34,0.00,,,0.00,WUHU21623XXSP,2013-07-02 00:04:00,
2013-07-01 17:09:00,95.7,62.7,29.72,SSE,157,2.0,2.0,34,0.00,,,0.00,WUHU21623XXSP,2013-07-02 00:09:00,
2013-07-01 17:14:00,96.1,63.0,29.72,SSW,202,1.3,2.2,34,0.00,,,0.00,WUHU21623XXSP,2013-07-02 00:14:00,
2013-07-01 17:19:00,96.4,63.3,29.72,SW,225,0.0,2.2,34,0.00,,,0.00,WUHU21623XXSP,2013-07-02 00:19:00,
2013-07-01 17:24:00,97.0,62.9,29.72,South,180,2.5,4.9,33,0.00,,,0.00,WUHU21623XXSP,2013-07-02 00:24:00,
2013-07-01 17:29:00,97.2,63.1,29.72,South,180,2.5,4.9,33,0.00,,,0.00,WUHU21623XXSP,2013-07-02 00:29:00,
2013-07-01 17:34:00,97.3,63.2,29.72,SSE,157,2.0,2.5,33,0.00,,,0.00,WUHU21623XXSP,2013-07-02 00:34:00,
2013-07-01 17:39:00,97.5,63.4,29.72,WNW,292,0.7,3.4,33,0.00,,,0.00,WUHU21623XXSP,2013-07-02 00:39:00,
2013-07-01 17:44:00,97.7,62.7,29.72,SSE,157,4.3,4.3,32,0.00,,,0.00,WUHU21623XXSP,2013-07-02 00:44:00,
2013-07-01 17:49:00,97.5,62.6,29.72,SSW,202,0.0,4.3,32,0.00,,,0.00,WUHU21623XXSP,2013-07-02 00:49:00,
2013-07-01 17:54:00,97.3,62.4,29.71,SSW,202,1.8,3.1,32,0.00,,,0.00,WUHU21623XXSP,2013-07-02 00:54:00,
2013-07-01 17:59:00,97.2,62.2,29.72,South,180,0.0,3.1,32,0.00,,,0.00,WUHU21623XXSP,2013-07-02 00:59:00,
2013-07-01 18:04:00,97.0,62.1,29.72,South,180,5.4,5.4,32,0.00,,,0.00,WUHU21623XXSP,2013-07-02 01:04:00,
2013-07-01 18:09:00,96.6,61.8,29.72,SSW,202,2.5,5.6,32,0.00,,,0.00,WUHU21623XXSP,2013-07-02 01:09:00,
2013-07-01 18:14:00,96.4,61.6,29.72,SSE,157,4.5,5.6,32,0.00,,,0.00,WUHU21623XXSP,2013-07-02 01:14:00,
2013-07-01 18:19:00,96.1,62.1,29.72,East,90,0.0,4.5,33,0.00,,,0.00,WUHU21623XXSP,2013-07-02 01:19:00,
2013-07-01 18:24:00,95.7,61.8,29.72,East,90,0.0,3.1,33,0.00,,,0.00,WUHU21623XXSP,2013-07-02 01:24:00,
2013-07-01 18:29:00,95.5,61.7,29.72,SSW,202,0.0,1.3,33,0.00,,,0.00,WUHU21623XXSP,2013-07-02 01:29:00,
2013-07-01 18:34:00,95.2,61.4,29.72,SW,225,1.8,2.0,33,0.00,,,0.00,WUHU21623XXSP,2013-07-02 01:34:00,
2013-07-01 18:39:00,94.8,61.1,29.72,ESE,112,0.0,2.2,33,0.00,,,0.00,WUHU21623XXSP,2013-07-02 01:39:00,
2013-07-01 18:44:00,94.8,61.1,29.72,NE,45,0.9,0.9,33,0.00,,,0.00,WUHU21623XXSP,2013-07-02 01:44:00,
2013-07-01 18:49:00,94.3,60.6,29.72,SE,135,0.0,3.1,33,0.00,,,0.00,WUHU21623XXSP,2013-07-02 01:49:00,
2013-07-01 18:54:00,93.9,60.3,29.72,South,180,1.1,3.1,33,0.00,,,0.00,WUHU21623XXSP,2013-07-02 01:54:00,
2013-07-01 18:59:00,93.4,60.1,29.72,SSE,157,0.0,1.3,33,0.00,,,0.00,WUHU21623XXSP,2013-07-02 01:59:00,
2013-07-01 19:04:00,92.5,59.8,29.72,South,180,1.3,3.4,34,0.00,,,0.00,WUHU21623XXSP,2013-07-02 02:04:00,
2013-07-01 19:09:00,91.9,59.4,29.72,South,180,2.2,3.4,34,0.00,,,0.00,WUHU21623XXSP,2013-07-02 02:09:00,
2013-07-01 19:14:00,91.6,59.1,29.72,South,180,4.5,4.5,34,0.00,,,0.00,WUHU21623XXSP,2013-07-02 02:14:00,
2013-07-01 19:19:00,90.7,58.3,29.73,SSE,157,0.9,4.5,34,0.00,,,0.00,WUHU21623XXSP,2013-07-02 02:19:00,
2013-07-01 19:24:00,90.1,58.6,29.73,SSE,157,2.2,2.5,35,0.00,,,0.00,WUHU21623XXSP,2013-07-02 02:24:00,
2013-07-01 19:29:00,89.4,57.9,29.73,South,180,0.0,2.5,35,0.00,,,0.00,WUHU21623XXSP,2013-07-02 02:29:00,
2013-07-01 19:34:00,88.3,57.0,29.74,WNW,292,0.7,1.3,35,0.00,,,0.00,WUHU21623XXSP,2013-07-02 02:34:00,
2013-07-01 19:39:00,87.6,57.2,29.73,SW,225,0.0,1.3,36,0.00,,,0.00,WUHU21623XXSP,2013-07-02 02:39:00,
2013-07-01 19:44:00,86.7,56.4,29.73,SSW,202,0.9,1.3,36,0.00,,,0.00,WUHU21623XXSP,2013-07-02 02:44:00,
2013-07-01 19:49:00,86.2,56.8,29.74,South,180,2.0,2.2,37,0.00,,,0.00,WUHU21623XXSP,2013-07-02 02:49:00,
2013-07-01 19:54:00,85.6,56.3,29.73,SW,225,2.0,2.2,37,0.00,,,0.00,WUHU21623XXSP,2013-07-02 02:54:00,
2013-07-01 19:59:00,85.1,56.0,29.73,West,270,0.0,2.0,38,0.00,,,0.00,WUHU21623XXSP,2013-07-02 02:59:00,
2013-07-01 20:04:00,84.6,56.1,29.74,SSE,157,0.0,0.0,38,0.00,,,0.00,WUHU21623XXSP,2013-07-02 03:04:00,
2013-07-01 20:09:00,84.0,55.6,29.73,SSE,157,0.0,0.0,38,0.00,,,0.00,WUHU21623XXSP,2013-07-02 03:09:00,
2013-07-01 20:14:00,83.8,55.5,29.73,WSW,247,0.0,0.0,38,0.00,,,0.00,WUHU21623XXSP,2013-07-02 03:14:00,
2013-07-01 20:19:00,83.1,55.6,29.73,South,180,0.0,0.0,39,0.00,,,0.00,WUHU21623XXSP,2013-07-02 03:19:00,
2013-07-01 20:24:00,82.8,55.3,29.73,South,180,0.0,0.0,39,0.00,,,0.00,WUHU21623XXSP,2013-07-02 03:24:00,
2013-07-01 20:29:00,82.2,54.8,29.73,South,180,0.0,0.0,39,0.00,,,0.00,WUHU21623XXSP,2013-07-02 03:29:00,
2013-07-01 20:35:00,82.0,55.4,29.73,SSW,202,0.0,0.0,40,0.00,,,0.00,WUHU21623XXSP,2013-07-02 03:35:00,
2013-07-01 20:40:00,81.7,55.1,29.74,WSW,247,0.0,0.9,40,0.00,,,0.00,WUHU21623XXSP,2013-07-02 03:40:00,
2013-07-01 20:45:00,81.3,54.8,29.74,East,90,0.9,1.3,40,0.00,,,0.00,WUHU21623XXSP,2013-07-02 03:45:00,
2013-07-01 20:50:00,80.8,54.9,29.73,SSW,202,0.0,1.3,41,0.00,,,0.00,WUHU21623XXSP,2013-07-02 03:50:00,
2013-07-01 20:55:00,80.2,54.4,29.73,WNW,292,0.0,0.0,41,0.00,,,0.00,WUHU21623XXSP,2013-07-02 03:55:00,
2013-07-01 21:00:00,79.7,53.9,29.73,WSW,247,0.0,0.0,41,0.00,,,0.00,WUHU21623XXSP,2013-07-02 04:00:00,
2013-07-01 21:05:00,79.2,54.1,29.74,SSW,202,0.0,1.3,42,0.00,,,0.00,WUHU21623XXSP,2013-07-02 04:05:00,
2013-07-01 21:10:00,79.0,53.9,29.74,SSW,202,0.0,1.3,42,0.00,,,0.00,WUHU21623XXSP,2013-07-02 04:10:00,
2013-07-01 21:15:00,78.6,53.6,29.74,SSE,157,0.0,0.0,42,0.00,,,0.00,WUHU21623XXSP,2013-07-02 04:15:00,
2013-07-01 21:20:00,78.4,54.0,29.74,South,180,0.0,0.0,43,0.00,,,0.00,WUHU21623XXSP,2013-07-02 04:20:00,
2013-07-01 21:25:00,77.9,53.5,29.73,South,180,0.0,0.0,43,0.00,,,0.00,WUHU21623XXSP,2013-07-02 04:25:00,
2013-07-01 21:30:00,77.7,53.4,29.74,South,180,0.0,0.0,43,0.00,,,0.00,WUHU21623XXSP,2013-07-02 04:30:00,
2013-07-01 21:35:00,77.4,53.1,29.74,SSE,157,0.0,0.0,43,0.00,,,0.00,WUHU21623XXSP,2013-07-02 04:35:00,
2013-07-01 21:40:00,77.2,52.9,29.74,South,180,0.0,0.0,43,0.00,,,0.00,WUHU21623XXSP,2013-07-02 04:40:00,
2013-07-01 21:45:00,76.8,52.6,29.74,SSE,157,0.0,0.0,43,0.00,,,0.00,WUHU21623XXSP,2013-07-02 04:45:00,
2013-07-01 21:50:00,76.5,52.9,29.74,SSE,157,0.9,0.9,44,0.00,,,0.00,WUHU21623XXSP,2013-07-02 04:50:00,
2013-07-01 21:55:00,76.3,52.7,29.75,South,180,0.9,0.9,44,0.00,,,0.00,WUHU21623XXSP,2013-07-02 04:55:00,
2013-07-01 22:00:00,75.9,52.4,29.75,South,180,0.0,0.9,44,0.00,,,0.00,WUHU21623XXSP,2013-07-02 05:00:00,
2013-07-01 22:05:00,75.7,52.2,29.75,SSE,157,0.0,0.0,44,0.00,,,0.00,WUHU21623XXSP,2013-07-02 05:05:00,
2013-07-01 22:10:00,75.4,52.5,29.75,ESE,112,0.0,0.0,45,0.00,,,0.00,WUHU21623XXSP,2013-07-02 05:10:00,
2013-07-01 22:15:00,75.0,52.2,29.75,SSW,202,0.0,0.9,45,0.00,,,0.00,WUHU21623XXSP,2013-07-02 05:15:00,
2013-07-01 22:20:00,74.8,52.0,29.75,South,180,0.0,0.9,45,0.00,,,0.00,WUHU21623XXSP,2013-07-02 05:20:00,
2013-07-01 22:25:00,74.5,51.7,29.75,South,180,0.0,0.0,45,0.00,,,0.00,WUHU21623XXSP,2013-07-02 05:25:00,
2013-07-01 22:30:00,74.3,52.1,29.75,South,180,0.0,0.0,46,0.00,,,0.00,WUHU21623XXSP,2013-07-02 05:30:00,
2013-07-01 22:35:00,74.3,52.1,29.75,South,180,0.0,0.0,46,0.00,,,0.00,WUHU21623XXSP,2013-07-02 05:35:00,
2013-07-01 22:40:00,74.1,51.9,29.75,South,180,0.0,0.9,46,0.00,,,0.00,WUHU21623XXSP,2013-07-02 05:40:00,
2013-07-01 22:45:00,73.9,52.3,29.74,South,180,0.0,0.9,47,0.00,,,0.00,WUHU21623XXSP,2013-07-02 05:45:00,
2013-07-01 22:50:00,73.8,52.2,29.74,South,180,0.0,0.0,47,0.00,,,0.00,WUHU21623XXSP,2013-07-02 05:50:00,
2013-07-01 22:55:00,73.6,52.0,29.74,South,180,0.0,0.0,47,0.00,,,0.00,WUHU21623XXSP,2013-07-02 05:55:00,
2013-07-01 23:00:00,73.4,51.8,29.75,South,180,0.0,0.0,47,0.00,,,0.00,WUHU21623XXSP,2013-07-02 06:00:00,
2013-07-01 23:05:00,73.2,51.7,29.75,SSE,157,0.0,0.0,47,0.00,,,0.00,WUHU21623XXSP,2013-07-02 06:05:00,
2013-07-01 23:10:00,73.2,52.3,29.75,South,180,0.0,0.0,48,0.00,,,0.00,WUHU21623XXSP,2013-07-02 06:10:00,
2013-07-01 23:15:00,73.0,52.1,29.75,SW,225,0.0,0.0,48,0.00,,,0.00,WUHU21623XXSP,2013-07-02 06:15:00,
2013-07-01 23:20:00,72.9,51.9,29.75,WSW,247,0.0,0.0,48,0.00,,,0.00,WUHU21623XXSP,2013-07-02 06:20:00,
2013-07-01 23:25:00,72.7,51.8,29.76,ESE,112,0.0,0.0,48,0.00,,,0.00,WUHU21623XXSP,2013-07-02 06:25:00,
2013-07-01 23:30:00,72.3,52.0,29.76,WSW,247,0.0,0.0,49,0.00,,,0.00,WUHU21623XXSP,2013-07-02 06:30:00,
2013-07-01 23:35:00,72.3,52.0,29.76,NW,315,0.0,0.0,49,0.00,,,0.00,WUHU21623XXSP,2013-07-02 06:35:00,
2013-07-01 23:40:00,72.1,51.9,29.76,SE,135,0.0,0.0,49,0.00,,,0.00,WUHU21623XXSP,2013-07-02 06:40:00,
2013-07-01 23:45:00,71.8,52.1,29.76,SSE,157,0.0,1.3,50,0.00,,,0.00,WUHU21623XXSP,2013-07-02 06:45:00,
2013-07-01 23:50:00,71.8,52.1,29.76,SSW,202,0.0,1.3,50,0.00,,,0.00,WUHU21623XXSP,2013-07-02 06:50:00,
2013-07-01 23:55:00,71.4,51.8,29.76,South,180,0.0,0.0,50,0.00,,,0.00,WUHU21623XXSP,2013-07-02 06:55:00,